GSAT0206 (GALILEO 10) (40890 NORAD) Tracking and Keplerian Element Data

This shows tracking and keplerian element data for the satellite.

Feedback or suggestion? Click here.




ElementValue
Catalog40890
NameGSAT0206 (GALILEO 10)
Epoch Orbit1986
Epoch Day322.95150947
Epoch Year2018
RAAN297.9307
Inclination56.6167
Eccentricity0.0002356
Argument of Perigee302.0535
Mean Anonmoly57.9136
Mean Motion1.70474581
Decay Rate-2.1E-07
L11 40890U 15045B 18322.95150947 -.00000021 00000-0 00000+0 0 9995
L22 40890 56.6167 297.9307 0002356 302.0535 57.9136 1.70474581 19867

Live tracking and technical data element details for GSAT0206 (GALILEO 10) (NORAD 40890). GSAT0206 (GALILEO 10) can be tracked NOW for your location showing map with azimuth and elevation plus other details from your city location.

Track the satellite on the map from your city or location and see movement details for azimuth, elevation, latitude, longitude, range, height, and movement on the map or in text.







IsCatalogInMostPopularTable: catalog: 40890, numindb: 92
Update: records affected: 1



GetName: 40890 GSAT0206 (GALILEO 10)

Hit Count: updated at: Tue, 20 Nov 2018 00:04:49 GMT